| time (UTC) | temp F | wind direction | speed MPH | gust MPH | rain 1hr in | rain 24hr in | rain mn in | humidity % | barometer mb |
| 20260903200543 | 68 | 346 | 1.0 | 5.0 | 0.00 | 0.00 | 0.00 | 45 | 1009.3 |
| 20260903200155 | 68 | 15 | 2.0 | 4.0 | 0.00 | 0.00 | 0.00 | 43 | 1009.3 |
| 20260903195525 | 68 | 191 | 2.0 | 4.0 | 0.00 | 0.00 | 0.00 | 46 | 1009.1 |
| 20260903195042 | 68 | 54 | 2.0 | 6.0 | 0.00 | 0.00 | 0.00 | 44 | 1009.1 |
| 20260903194717 | 67 | 121 | 2.0 | 9.0 | 0.00 | 0.00 | 0.00 | 43 | 1009.2 |
| 20260903194030 | 67 | 96 | 3.0 | 9.0 | 0.00 | 0.00 | 0.00 | 44 | 1008.9 |
| 20260903193545 | 67 | 198 | 2.0 | 6.0 | 0.00 | 0.00 | 0.00 | 41 | 1009.1 |
| 20260903193215 | 66 | 132 | 0.0 | 5.0 | 0.00 | 0.00 | 0.00 | 46 | 1008.9 |
| 20260903192539 | 66 | 15 | 1.0 | 5.0 | 0.00 | 0.00 | 0.00 | 45 | 1009.1 |
| 20260903192040 | 65 | 96 | 1.0 | 7.0 | 0.00 | 0.00 | 0.00 | 45 | 1008.9 |
| 20260903191714 | 65 | 182 | 1.0 | 7.0 | 0.00 | 0.00 | 0.00 | 44 | 1008.9 |
| 20260903191029 | 65 | 177 | 1.0 | 6.0 | 0.00 | 0.00 | 0.00 | 47 | 1009.0 |
| 20260903190525 | 65 | 360 | 1.0 | 6.0 | 0.00 | 0.00 | 0.00 | 44 | 1009.1 |
| 20260903190137 | 66 | 234 | 1.0 | 7.0 | 0.00 | 0.00 | 0.00 | 45 | 1009.0 |
| 20260903185529 | 66 | 186 | 2.0 | 7.0 | 0.00 | 0.00 | 0.00 | 46 | 1009.0 |
| 20260903185038 | 66 | 55 | 2.0 | 5.0 | 0.00 | 0.00 | 0.00 | 46 | 1009.1 |
| 20260903184626 | 66 | 199 | 1.0 | 6.0 | 0.00 | 0.00 | 0.00 | 44 | 1009.1 |
| 20260903184030 | 65 | 97 | 0.0 | 5.0 | 0.00 | 0.00 | 0.00 | 50 | 1009.0 |
| 20260903183529 | 65 | 90 | 0.0 | 6.0 | 0.00 | 0.00 | 0.00 | 45 | 1009.0 |
| 20260903183152 | 65 | 153 | 2.0 | 6.0 | 0.00 | 0.00 | 0.00 | 49 | 1009.0 |
| 20260903182552 | 65 | 32 | 0.0 | 5.0 | 0.00 | 0.00 | 0.00 | 47 | 1009.1 |
| 20260903182038 | 65 | 60 | 1.0 | 4.0 | 0.00 | 0.00 | 0.00 | 46 | 1009.0 |
| 20260903181700 | 65 | 175 | 0.0 | 4.0 | 0.00 | 0.00 | 0.00 | 47 | 1009.0 |
| 20260903181038 | 64 | 23 | 2.0 | 4.0 | 0.00 | 0.00 | 0.00 | 45 | 1008.9 |
| 20260903180542 | 64 | 127 | 0.0 | 3.0 | 0.00 | 0.00 | 0.00 | 49 | 1009.0 |
| 20260903180153 | 63 | 177 | 0.0 | 3.0 | 0.00 | 0.00 | 0.00 | 49 | 1008.8 |
| 20260903175545 | 64 | 5 | 0.0 | 4.0 | 0.00 | 0.00 | 0.00 | 44 | 1009.0 |
| 20260903175050 | 64 | 293 | 0.0 | 4.0 | 0.00 | 0.00 | 0.00 | 47 | 1008.8 |
| 20260903174726 | 64 | 319 | 1.0 | 3.0 | 0.00 | 0.00 | 0.00 | 44 | 1008.8 |
| 20260903174057 | 64 | 79 | 0.0 | 2.0 | 0.00 | 0.00 | 0.00 | 49 | 1009.0 |
| 20260903173532 | 63 | 165 | 0.0 | 3.0 | 0.00 | 0.00 | 0.00 | 46 | 1009.0 |
| 20260903173138 | 63 | 352 | 0.0 | 3.0 | 0.00 | 0.00 | 0.00 | 47 | 1008.9 |
| 20260903172529 | 62 | 360 | 0.0 | 2.0 | 0.00 | 0.00 | 0.00 | 46 | 1008.8 |
| 20260903172026 | 62 | 351 | 0.0 | 3.0 | 0.00 | 0.00 | 0.00 | 52 | 1008.7 |
| 20260903171634 | 61 | 306 | 0.0 | 4.0 | 0.00 | 0.00 | 0.00 | 52 | 1008.7 |
| 20260903171027 | 61 | 82 | 2.0 | 4.0 | 0.00 | 0.00 | 0.00 | 50 | 1008.8 |
| 20260903170542 | 60 | 69 | 1.0 | 4.0 | 0.00 | 0.00 | 0.00 | 54 | 1008.8 |
| 20260903170153 | 59 | 63 | 0.0 | 3.0 | 0.00 | 0.00 | 0.00 | 58 | 1008.8 |
| 20260903165538 | 58 | 68 | 1.0 | 3.0 | 0.00 | 0.00 | 0.00 | 66 | 1008.7 |
| 20260903165029 | 57 | 34 | 0.0 | 2.0 | 0.00 | 0.00 | 0.00 | 60 | 1008.7 |
| 20260903164635 | 57 | 48 | 0.0 | 2.0 | 0.00 | 0.00 | 0.00 | 72 | 1008.7 |
| 20260903164043 | 57 | 243 | 0.0 | 2.0 | 0.00 | 0.00 | 0.00 | 71 | 1008.6 |
| 20260903163526 | 56 | 13 | 1.0 | 2.0 | 0.00 | 0.00 | 0.00 | 74 | 1008.7 |
| 20260903163213 | 56 | 111 | 0.0 | 2.0 | 0.00 | 0.00 | 0.00 | 78 | 1008.6 |
| 20260903162534 | 55 | 30 | 0.0 | 2.0 | 0.00 | 0.00 | 0.00 | 82 | 1008.6 |
| 20260903162033 | 55 | 287 | 1.0 | 2.0 | 0.00 | 0.00 | 0.00 | 80 | 1008.6 |
| 20260903161624 | 54 | 30 | 0.0 | 0.0 | 0.00 | 0.00 | 0.00 | 85 | 1008.5 |
| 20260903161030 | 54 | 95 | 0.0 | 0.0 | 0.00 | 0.00 | 0.00 | 88 | 1008.6 |
| 20260903160540 | 54 | 90 | 0.0 | 0.0 | 0.00 | 0.00 | 0.00 | 86 | 1008.6 |
| 20260903160158 | 54 | 57 | 0.0 | 0.0 | 0.00 | 0.00 | 0.00 | 87 | 1008.6 |
| 20260903155546 | 53 | 80 | 0.0 | 0.0 | 0.00 | 0.00 | 0.00 | 89 | 1008.6 |
| 20260903155033 | 53 | 327 | 0.0 | 0.0 | 0.00 | 0.00 | 0.00 | 91 | 1008.6 |
| 20260903154716 | 52 | 217 | 0.0 | 0.0 | 0.00 | 0.00 | 0.00 | 91 | 1008.6 |
| 20260903154021 | 52 | 248 | 0.0 | 0.0 | 0.00 | 0.00 | 0.00 | 94 | 1008.8 |
| 20260903153536 | 51 | 248 | 0.0 | 0.0 | 0.00 | 0.00 | 0.00 | 94 | 1008.8 |
| 20260903153159 | 50 | 248 | 0.0 | 0.0 | 0.00 | 0.00 | 0.00 | 93 | 1008.8 |
| 20260903152524 | 50 | 248 | 0.0 | 0.0 | 0.00 | 0.00 | 0.00 | 92 | 1008.6 |
| 20260903152024 | 50 | 248 | 0.0 | 0.0 | 0.00 | 0.00 | 0.00 | 92 | 1008.7 |
| 20260903151624 | 50 | 248 | 0.0 | 0.0 | 0.00 | 0.00 | 0.00 | 93 | 1008.7 |
| 20260903151036 | 49 | 248 | 0.0 | 0.0 | 0.00 | 0.00 | 0.00 | 93 | 1008.7 |
| 20260903150525 | 49 | 248 | 0.0 | 0.0 | 0.00 | 0.00 | 0.00 | 93 | 1008.7 |
| 20260903150137 | 49 | 248 | 0.0 | 0.0 | 0.00 | 0.00 | 0.00 | 93 | 1008.7 |
| 20260903145537 | 49 | 248 | 0.0 | 0.0 | 0.00 | 0.00 | 0.00 | 92 | 1008.7 |
| 20260903145042 | 49 | 198 | 0.0 | 0.0 | 0.00 | 0.00 | 0.00 | 93 | 1008.6 |
| 20260903144635 | 49 | 198 | 0.0 | 0.0 | 0.00 | 0.00 | 0.00 | 93 | 1008.5 |
| 20260903144029 | 49 | 198 | 0.0 | 0.0 | 0.00 | 0.00 | 0.00 | 93 | 1008.7 |
| 20260903143541 | 49 | 198 | 0.0 | 0.0 | 0.00 | 0.00 | 0.00 | 93 | 1008.6 |
| 20260903143140 | 49 | 198 | 0.0 | 0.0 | 0.00 | 0.00 | 0.00 | 93 | 1008.5 |
| 20260903142533 | 49 | 296 | 0.0 | 0.0 | 0.00 | 0.00 | 0.00 | 94 | 1008.4 |
| 20260903142034 | 49 | 296 | 0.0 | 0.0 | 0.00 | 0.00 | 0.00 | 93 | 1008.3 |
| 20260903141654 | 49 | 296 | 0.0 | 0.0 | 0.00 | 0.00 | 0.00 | 93 | 1008.2 |
| 20260903141035 | 49 | 296 | 0.0 | 0.0 | 0.00 | 0.00 | 0.00 | 93 | 1008.3 |
| 20260903140536 | 49 | 296 | 0.0 | 0.0 | 0.00 | 0.00 | 0.00 | 93 | 1008.2 |
| 20260903140201 | 49 | 250 | 0.0 | 0.0 | 0.00 | 0.00 | 0.00 | 94 | 1008.2 |
| 20260903135522 | 49 | 246 | 0.0 | 0.0 | 0.00 | 0.00 | 0.00 | 94 | 1008.0 |
| 20260903135036 | 49 | 245 | 0.0 | 0.0 | 0.00 | 0.00 | 0.00 | 93 | 1007.9 |
| 20260903134637 | 49 | 296 | 0.0 | 0.0 | 0.00 | 0.00 | 0.00 | 93 | 1007.9 |
| 20260903134026 | 49 | 296 | 0.0 | 0.0 | 0.00 | 0.00 | 0.00 | 93 | 1007.7 |
| 20260903133528 | 49 | 304 | 0.0 | 1.0 | 0.00 | 0.00 | 0.00 | 94 | 1007.9 |
| 20260903133203 | 49 | 304 | 0.0 | 2.0 | 0.00 | 0.00 | 0.00 | 94 | 1007.9 |
| 20260903132527 | 49 | 304 | 0.0 | 2.0 | 0.00 | 0.00 | 0.00 | 94 | 1007.9 |
| 20260903132023 | 49 | 272 | 0.0 | 0.0 | 0.00 | 0.00 | 0.00 | 93 | 1007.8 |
| 20260903131635 | 49 | 246 | 0.0 | 0.0 | 0.00 | 0.00 | 0.00 | 94 | 1007.9 |
| 20260903131025 | 50 | 282 | 0.0 | 0.0 | 0.00 | 0.00 | 0.00 | 94 | 1007.9 |
| 20260903130541 | 50 | 282 | 0.0 | 0.0 | 0.00 | 0.00 | 0.00 | 95 | 1007.8 |
| 20260903130131 | 50 | 267 | 0.0 | 0.0 | 0.00 | 0.00 | 0.00 | 95 | 1007.8 |
| 20260903125547 | 50 | 266 | 0.0 | 0.0 | 0.00 | 0.00 | 0.00 | 95 | 1007.8 |
| 20260903125025 | 50 | 266 | 0.0 | 0.0 | 0.00 | 0.00 | 0.00 | 95 | 1007.7 |
| 20260903124626 | 50 | 266 | 0.0 | 0.0 | 0.00 | 0.00 | 0.00 | 95 | 1007.6 |
| 20260903124036 | 50 | 266 | 0.0 | 0.0 | 0.00 | 0.00 | 0.00 | 95 | 1007.7 |
| 20260903123523 | 50 | 266 | 0.0 | 0.0 | 0.00 | 0.00 | 0.00 | 95 | 1007.6 |
| 20260903123152 | 50 | 266 | 0.0 | 0.0 | 0.00 | 0.00 | 0.00 | 95 | 1007.6 |
| 20260903122524 | 50 | 278 | 0.0 | 0.0 | 0.00 | 0.00 | 0.00 | 95 | 1007.5 |
| 20260903122030 | 50 | 278 | 0.0 | 0.0 | 0.00 | 0.00 | 0.00 | 95 | 1007.5 |
| 20260903121632 | 51 | 278 | 0.0 | 0.0 | 0.00 | 0.00 | 0.00 | 95 | 1007.6 |
| 20260903121037 | 51 | 278 | 0.0 | 0.0 | 0.00 | 0.00 | 0.00 | 95 | 1007.7 |
| 20260903120527 | 51 | 278 | 0.0 | 0.0 | 0.00 | 0.00 | 0.00 | 95 | 1007.5 |
| 20260903120127 | 51 | 277 | 0.0 | 1.0 | 0.00 | 0.00 | 0.00 | 95 | 1007.6 |
| 20260903115542 | 51 | 239 | 0.0 | 1.0 | 0.00 | 0.00 | 0.00 | 95 | 1007.6 |
| 20260903115042 | 51 | 236 | 0.0 | 0.0 | 0.00 | 0.00 | 0.00 | 95 | 1007.6 |
| 20260903114632 | 51 | 231 | 0.0 | 0.0 | 0.00 | 0.00 | 0.00 | 95 | 1007.6 |
| 20260903114027 | 51 | 231 | 0.0 | 2.0 | 0.00 | 0.00 | 0.00 | 95 | 1007.6 |
| 20260903113541 | 51 | 231 | 0.0 | 2.0 | 0.00 | 0.00 | 0.00 | 95 | 1007.6 |
| 20260903113138 | 51 | 290 | 0.0 | 2.0 | 0.00 | 0.00 | 0.00 | 95 | 1007.5 |
| 20260903112526 | 51 | 306 | 0.0 | 2.0 | 0.00 | 0.00 | 0.00 | 94 | 1007.6 |
| 20260903112025 | 51 | 292 | 0.0 | 0.0 | 0.00 | 0.00 | 0.00 | 95 | 1007.4 |
| 20260903111717 | 51 | 261 | 0.0 | 0.0 | 0.00 | 0.00 | 0.00 | 94 | 1007.3 |
| 20260903111032 | 51 | 301 | 0.0 | 0.0 | 0.00 | 0.00 | 0.00 | 94 | 1007.4 |
| 20260903110540 | 51 | 301 | 0.0 | 0.0 | 0.00 | 0.00 | 0.00 | 94 | 1007.2 |
| 20260903110145 | 51 | 241 | 0.0 | 0.0 | 0.00 | 0.00 | 0.00 | 94 | 1007.3 |
| 20260903105521 | 51 | 241 | 0.0 | 0.0 | 0.00 | 0.00 | 0.00 | 94 | 1007.1 |
| 20260903105036 | 51 | 241 | 0.0 | 0.0 | 0.00 | 0.00 | 0.00 | 94 | 1007.2 |
| 20260903104638 | 51 | 241 | 0.0 | 0.0 | 0.00 | 0.00 | 0.00 | 94 | 1007.2 |
| 20260903104026 | 51 | 241 | 0.0 | 0.0 | 0.00 | 0.00 | 0.00 | 94 | 1007.2 |
| 20260903103544 | 51 | 241 | 0.0 | 0.0 | 0.00 | 0.00 | 0.00 | 94 | 1007.4 |
| 20260903103105 | 51 | 241 | 0.0 | 0.0 | 0.00 | 0.00 | 0.00 | 94 | 1007.3 |
| 20260903102546 | 51 | 187 | 0.0 | 0.0 | 0.00 | 0.00 | 0.00 | 93 | 1007.5 |
| 20260903102036 | 51 | 152 | 0.0 | 0.0 | 0.00 | 0.00 | 0.00 | 93 | 1007.5 |
| 20260903101651 | 51 | 128 | 0.0 | 0.0 | 0.00 | 0.00 | 0.00 | 92 | 1007.3 |
| 20260903101042 | 51 | 128 | 0.0 | 0.0 | 0.00 | 0.00 | 0.00 | 92 | 1007.3 |
| 20260903100533 | 51 | 128 | 0.0 | 0.0 | 0.00 | 0.00 | 0.00 | 92 | 1007.4 |
| 20260903100201 | 51 | 119 | 0.0 | 0.0 | 0.00 | 0.00 | 0.00 | 91 | 1007.3 |
| 20260903095545 | 51 | 262 | 0.0 | 0.0 | 0.00 | 0.00 | 0.00 | 91 | 1007.3 |
| 20260903095042 | 52 | 262 | 0.0 | 0.0 | 0.00 | 0.00 | 0.00 | 90 | 1007.2 |
| 20260903094646 | 52 | 190 | 0.0 | 0.0 | 0.00 | 0.00 | 0.00 | 89 | 1007.2 |
| 20260903094043 | 52 | 232 | 0.0 | 0.0 | 0.00 | 0.00 | 0.00 | 88 | 1007.1 |
| 20260903093530 | 53 | 234 | 0.0 | 0.0 | 0.00 | 0.00 | 0.00 | 87 | 1007.1 |
| 20260903093135 | 53 | 234 | 0.0 | 0.0 | 0.00 | 0.00 | 0.00 | 85 | 1006.9 |
| 20260903092524 | 53 | 234 | 0.0 | 0.0 | 0.00 | 0.00 | 0.00 | 85 | 1006.9 |
| 20260903092046 | 53 | 234 | 0.0 | 0.0 | 0.00 | 0.00 | 0.00 | 84 | 1007.0 |
| 20260903091614 | 53 | 234 | 0.0 | 0.0 | 0.00 | 0.00 | 0.00 | 84 | 1006.8 |
| 20260903091043 | 53 | 234 | 0.0 | 0.0 | 0.00 | 0.00 | 0.00 | 83 | 1006.9 |
| 20260903090525 | 54 | 234 | 0.0 | 0.0 | 0.00 | 0.00 | 0.00 | 82 | 1007.0 |
| 20260903090200 | 54 | 234 | 0.0 | 0.0 | 0.00 | 0.00 | 0.00 | 81 | 1006.9 |
| 20260903085537 | 54 | 234 | 0.0 | 0.0 | 0.00 | 0.00 | 0.00 | 81 | 1006.9 |
| 20260903085028 | 54 | 234 | 0.0 | 0.0 | 0.00 | 0.00 | 0.00 | 80 | 1006.8 |
| 20260903084641 | 54 | 234 | 0.0 | 0.0 | 0.00 | 0.00 | 0.00 | 79 | 1006.8 |
| 20260903084029 | 54 | 234 | 0.0 | 0.0 | 0.00 | 0.00 | 0.00 | 79 | 1006.9 |
| 20260903083524 | 54 | 234 | 0.0 | 0.0 | 0.00 | 0.00 | 0.00 | 79 | 1006.8 |
| 20260903083132 | 54 | 234 | 0.0 | 0.0 | 0.00 | 0.00 | 0.00 | 79 | 1006.6 |
| 20260903082527 | 54 | 234 | 0.0 | 0.0 | 0.00 | 0.00 | 0.00 | 79 | 1006.7 |
| 20260903082029 | 54 | 229 | 0.0 | 0.0 | 0.00 | 0.00 | 0.00 | 79 | 1006.6 |
| 20260903081630 | 54 | 229 | 0.0 | 0.0 | 0.00 | 0.00 | 0.00 | 79 | 1006.7 |
| 20260903081025 | 54 | 309 | 0.0 | 0.0 | 0.00 | 0.00 | 0.00 | 80 | 1006.6 |
| 20260903080539 | 54 | 309 | 0.0 | 0.0 | 0.00 | 0.00 | 0.00 | 80 | 1006.7 |
| 20260903080124 | 54 | 309 | 0.0 | 0.0 | 0.00 | 0.00 | 0.00 | 80 | 1006.6 |
| 20260903075525 | 54 | 309 | 0.0 | 0.0 | 0.00 | 0.00 | 0.00 | 80 | 1006.7 |
| 20260903075037 | 54 | 313 | 0.0 | 0.0 | 0.00 | 0.00 | 0.00 | 80 | 1006.6 |
| 20260903074634 | 54 | 319 | 0.0 | 0.0 | 0.00 | 0.00 | 0.00 | 80 | 1006.7 |
| 20260903074042 | 55 | 319 | 0.0 | 0.0 | 0.00 | 0.00 | 0.00 | 79 | 1006.6 |
| 20260903073523 | 55 | 308 | 0.0 | 0.0 | 0.00 | 0.00 | 0.00 | 79 | 1006.6 |
| 20260903073131 | 55 | 308 | 0.0 | 0.0 | 0.00 | 0.00 | 0.00 | 78 | 1006.6 |
| 20260903072523 | 55 | 327 | 0.0 | 0.0 | 0.00 | 0.00 | 0.00 | 78 | 1006.5 |
| 20260903072024 | 55 | 327 | 0.0 | 0.0 | 0.00 | 0.00 | 0.00 | 79 | 1006.5 |
| 20260903071626 | 55 | 327 | 0.0 | 0.0 | 0.00 | 0.00 | 0.00 | 78 | 1006.5 |
| 20260903071042 | 55 | 286 | 0.0 | 0.0 | 0.00 | 0.00 | 0.00 | 78 | 1006.5 |
| 20260903070538 | 55 | 261 | 0.0 | 0.0 | 0.00 | 0.00 | 0.00 | 78 | 1006.4 |
| 20260903070158 | 55 | 252 | 0.0 | 0.0 | 0.00 | 0.00 | 0.00 | 77 | 1006.5 |
| 20260903065525 | 55 | 252 | 0.0 | 1.0 | 0.00 | 0.00 | 0.00 | 77 | 1006.5 |
| 20260903065041 | 55 | 252 | 0.0 | 1.0 | 0.00 | 0.00 | 0.00 | 78 | 1006.5 |
| 20260903064642 | 55 | 252 | 0.0 | 0.0 | 0.00 | 0.00 | 0.00 | 78 | 1006.5 |
| 20260903064029 | 55 | 252 | 0.0 | 0.0 | 0.00 | 0.00 | 0.00 | 78 | 1006.4 |
| 20260903063527 | 55 | 252 | 0.0 | 1.0 | 0.00 | 0.00 | 0.00 | 78 | 1006.4 |
| 20260903063157 | 55 | 252 | 0.0 | 1.0 | 0.00 | 0.00 | 0.00 | 78 | 1006.4 |
| 20260903062525 | 55 | 250 | 0.0 | 0.0 | 0.00 | 0.00 | 0.00 | 78 | 1006.2 |
| 20260903062046 | 55 | 250 | 0.0 | 2.0 | 0.00 | 0.00 | 0.00 | 79 | 1006.2 |
| 20260903061653 | 55 | 250 | 0.0 | 2.0 | 0.00 | 0.00 | 0.00 | 80 | 1006.3 |
| 20260903061032 | 55 | 264 | 0.0 | 1.0 | 0.00 | 0.00 | 0.00 | 79 | 1006.3 |
| 20260903060525 | 55 | 264 | 0.0 | 1.0 | 0.00 | 0.00 | 0.00 | 79 | 1006.2 |
| 20260903060136 | 55 | 229 | 0.0 | 1.0 | 0.00 | 0.00 | 0.00 | 78 | 1006.2 |
| 20260903055529 | 56 | 214 | 0.0 | 1.0 | 0.00 | 0.00 | 0.00 | 79 | 1006.1 |
| 20260903055024 | 56 | 212 | 0.0 | 2.0 | 0.00 | 0.00 | 0.00 | 77 | 1006.1 |
| 20260903054639 | 56 | 212 | 0.0 | 3.0 | 0.00 | 0.00 | 0.00 | 76 | 1006.1 |
| 20260903054042 | 57 | 227 | 1.0 | 3.0 | 0.00 | 0.00 | 0.00 | 75 | 1006.1 |
| 20260903053537 | 58 | 240 | 0.0 | 1.0 | 0.00 | 0.00 | 0.00 | 72 | 1006.1 |
| 20260903053126 | 59 | 289 | 0.0 | 0.0 | 0.00 | 0.00 | 0.00 | 67 | 1006.0 |
| 20260903052527 | 59 | 254 | 0.0 | 0.0 | 0.00 | 0.00 | 0.00 | 64 | 1005.9 |
| 20260903052027 | 59 | 219 | 0.0 | 0.0 | 0.00 | 0.00 | 0.00 | 61 | 1005.8 |
| 20260903051644 | 60 | 219 | 0.0 | 0.0 | 0.00 | 0.00 | 0.00 | 60 | 1005.8 |
| 20260903051118 | 60 | 219 | 0.0 | 2.0 | 0.00 | 0.00 | 0.00 | 59 | 1005.7 |
| 20260903050545 | 60 | 219 | 0.0 | 3.0 | 0.00 | 0.00 | 0.00 | 59 | 1005.8 |
| 20260903050135 | 60 | 223 | 0.0 | 3.0 | 0.00 | 0.00 | 0.00 | 59 | 1005.7 |
| 20260903045538 | 60 | 227 | 0.0 | 2.0 | 0.00 | 0.00 | 0.00 | 58 | 1005.6 |
| 20260903045042 | 60 | 347 | 0.0 | 3.0 | 0.00 | 0.00 | 0.00 | 58 | 1005.6 |
| 20260903044625 | 60 | 325 | 1.0 | 3.0 | 0.00 | 0.00 | 0.00 | 58 | 1005.6 |
| 20260903044029 | 60 | 314 | 0.0 | 2.0 | 0.00 | 0.00 | 0.00 | 58 | 1005.5 |
| 20260903043546 | 60 | 297 | 0.0 | 3.0 | 0.00 | 0.00 | 0.00 | 57 | 1005.4 |
| 20260903043152 | 60 | 309 | 0.0 | 3.0 | 0.00 | 0.00 | 0.00 | 56 | 1005.4 |
| 20260903042542 | 60 | 352 | 0.0 | 3.0 | 0.00 | 0.00 | 0.00 | 56 | 1005.4 |
| 20260903042031 | 61 | 5 | 1.0 | 5.0 | 0.00 | 0.00 | 0.00 | 56 | 1005.3 |
| 20260903041628 | 61 | 196 | 1.0 | 5.0 | 0.00 | 0.00 | 0.00 | 56 | 1005.3 |
| 20260903041330 | 61 | 36 | 0.0 | 4.0 | 0.00 | 0.00 | 0.00 | 56 | 1005.2 |
| 20260903040530 | 61 | 225 | 2.0 | 6.0 | 0.00 | 0.00 | 0.00 | 57 | 1005.2 |
| 20260903040217 | 61 | 24 | 2.0 | 6.0 | 0.00 | 0.00 | 0.00 | 57 | 1005.1 |
| 20260903035533 | 61 | 148 | 1.0 | 7.0 | 0.00 | 0.00 | 0.00 | 57 | 1005.0 |
| 20260903035024 | 61 | 96 | 1.0 | 7.0 | 0.00 | 0.00 | 0.00 | 57 | 1004.9 |
| 20260903034622 | 61 | 208 | 1.0 | 6.0 | 0.00 | 0.00 | 0.00 | 57 | 1004.9 |
| 20260903034036 | 61 | 134 | 1.0 | 6.0 | 0.00 | 0.00 | 0.00 | 57 | 1004.8 |
| 20260903033527 | 61 | 154 | 1.0 | 5.0 | 0.00 | 0.00 | 0.00 | 57 | 1004.9 |
| 20260903033130 | 62 | 163 | 1.0 | 5.0 | 0.00 | 0.00 | 0.00 | 58 | 1004.8 |
| 20260903032531 | 62 | 192 | 1.0 | 5.0 | 0.00 | 0.00 | 0.00 | 55 | 1004.8 |
| 20260903032048 | 62 | 148 | 0.0 | 3.0 | 0.00 | 0.00 | 0.00 | 54 | 1004.6 |
| 20260903031719 | 63 | 186 | 0.0 | 3.0 | 0.00 | 0.00 | 0.00 | 51 | 1004.4 |
| 20260903031021 | 63 | 268 | 0.0 | 2.0 | 0.00 | 0.00 | 0.00 | 50 | 1004.4 |
| 20260903030531 | 63 | 265 | 0.0 | 5.0 | 0.00 | 0.00 | 0.00 | 50 | 1004.5 |
| 20260903030123 | 64 | 159 | 1.0 | 5.0 | 0.00 | 0.00 | 0.00 | 49 | 1004.5 |
| 20260903025537 | 64 | 47 | 1.0 | 5.0 | 0.00 | 0.00 | 0.00 | 48 | 1004.5 |
| 20260903025045 | 64 | 81 | 1.0 | 5.0 | 0.00 | 0.00 | 0.00 | 48 | 1004.4 |
| 20260903024655 | 64 | 267 | 1.0 | 4.0 | 0.00 | 0.00 | 0.00 | 47 | 1004.4 |
| 20260903024032 | 64 | 155 | 1.0 | 4.0 | 0.00 | 0.00 | 0.00 | 47 | 1004.4 |
| 20260903023524 | 64 | 125 | 0.0 | 3.0 | 0.00 | 0.00 | 0.00 | 47 | 1004.4 |
| 20260903023100 | 65 | 167 | 1.0 | 6.0 | 0.00 | 0.00 | 0.00 | 46 | 1004.3 |
| 20260903022523 | 65 | 145 | 1.0 | 6.0 | 0.00 | 0.00 | 0.00 | 46 | 1004.3 |
| 20260903022028 | 65 | 75 | 0.0 | 4.0 | 0.00 | 0.00 | 0.00 | 45 | 1004.3 |
| 20260903021631 | 65 | 107 | 1.0 | 6.0 | 0.00 | 0.00 | 0.00 | 44 | 1004.2 |
| 20260903021033 | 65 | 39 | 1.0 | 4.0 | 0.00 | 0.00 | 0.00 | 44 | 1004.0 |
| 20260903020527 | 65 | 198 | 0.0 | 6.0 | 0.00 | 0.00 | 0.00 | 43 | 1003.9 |
| 20260903020142 | 66 | 224 | 1.0 | 4.0 | 0.00 | 0.00 | 0.00 | 44 | 1003.9 |
| 20260903015532 | 66 | 32 | 1.0 | 4.0 | 0.00 | 0.00 | 0.00 | 43 | 1004.0 |
| 20260903015029 | 66 | 129 | 0.0 | 3.0 | 0.00 | 0.00 | 0.00 | 43 | 1004.0 |
| 20260903014637 | 66 | 134 | 0.0 | 5.0 | 0.00 | 0.00 | 0.00 | 44 | 1004.0 |
| 20260903014024 | 66 | 157 | 0.0 | 5.0 | 0.00 | 0.00 | 0.00 | 43 | 1003.9 |
| 20260903013528 | 66 | 98 | 1.0 | 9.0 | 0.00 | 0.00 | 0.00 | 43 | 1004.0 |
| 20260903013150 | 66 | 161 | 1.0 | 9.0 | 0.00 | 0.00 | 0.00 | 43 | 1004.0 |
| 20260903012543 | 66 | 169 | 2.0 | 6.0 | 0.00 | 0.00 | 0.00 | 42 | 1004.0 |
| 20260903012046 | 66 | 163 | 1.0 | 6.0 | 0.00 | 0.00 | 0.00 | 42 | 1004.0 |
| 20260903011632 | 67 | 174 | 1.0 | 4.0 | 0.00 | 0.00 | 0.00 | 42 | 1003.9 |
| 20260903011033 | 67 | 166 | 1.0 | 7.0 | 0.00 | 0.00 | 0.00 | 42 | 1004.0 |
| 20260903010537 | 67 | 123 | 1.0 | 7.0 | 0.00 | 0.00 | 0.00 | 42 | 1003.9 |
| 20260903010137 | 67 | 102 | 1.0 | 9.0 | 0.00 | 0.00 | 0.00 | 42 | 1003.8 |
| 20260903005530 | 67 | 53 | 0.0 | 5.0 | 0.00 | 0.00 | 0.00 | 40 | 1003.7 |
| 20260903005025 | 68 | 248 | 1.0 | 5.0 | 0.00 | 0.00 | 0.00 | 39 | 1003.7 |
| 20260903004617 | 68 | 107 | 1.0 | 9.0 | 0.00 | 0.00 | 0.00 | 39 | 1003.6 |
| 20260903004035 | 68 | 148 | 2.0 | 9.0 | 0.00 | 0.00 | 0.00 | 38 | 1003.5 |
| 20260903003532 | 68 | 155 | 1.0 | 9.0 | 0.00 | 0.00 | 0.00 | 38 | 1003.5 |
| 20260903003124 | 68 | 59 | 2.0 | 7.0 | 0.00 | 0.00 | 0.00 | 39 | 1003.4 |
| 20260903002518 | 68 | 157 | 1.0 | 6.0 | 0.00 | 0.00 | 0.00 | 40 | 1003.5 |
| 20260903002025 | 68 | 155 | 3.0 | 5.0 | 0.00 | 0.00 | 0.00 | 39 | 1003.5 |
| 20260903001640 | 68 | 109 | 2.0 | 4.0 | 0.00 | 0.00 | 0.00 | 40 | 1003.4 |
| 20260903001036 | 68 | 93 | 1.0 | 4.0 | 0.00 | 0.00 | 0.00 | 40 | 1003.5 |
| 20260903000544 | 68 | 108 | 1.0 | 7.0 | 0.00 | 0.00 | 0.00 | 40 | 1003.4 |
| 20260903000218 | 68 | 276 | 2.0 | 7.0 | 0.00 | 0.00 | 0.00 | 40 | 1003.4 |
| 20260902235526 | 68 | 325 | 1.0 | 9.0 | 0.00 | 0.00 | 0.00 | 40 | 1003.4 |
| 20260902235033 | 68 | 65 | 2.0 | 12.0 | 0.00 | 0.00 | 0.00 | 39 | 1003.4 |
| 20260902234644 | 69 | 101 | 1.0 | 6.0 | 0.00 | 0.00 | 0.00 | 40 | 1003.4 |
| 20260902234035 | 69 | 53 | 2.0 | 6.0 | 0.00 | 0.00 | 0.00 | 39 | 1003.5 |
| 20260902233545 | 68 | 284 | 1.0 | 6.0 | 0.00 | 0.00 | 0.00 | 39 | 1003.4 |
| 20260902233135 | 68 | 93 | 1.0 | 7.0 | 0.00 | 0.00 | 0.00 | 39 | 1003.4 |
| 20260902232533 | 69 | 46 | 1.0 | 7.0 | 0.00 | 0.00 | 0.00 | 39 | 1003.5 |
| 20260902232032 | 69 | 156 | 0.0 | 6.0 | 0.00 | 0.00 | 0.00 | 41 | 1003.6 |
| 20260902231727 | 69 | 42 | 1.0 | 5.0 | 0.00 | 0.00 | 0.00 | 40 | 1003.4 |
| 20260902231039 | 69 | 110 | 1.0 | 6.0 | 0.00 | 0.00 | 0.00 | 39 | 1003.7 |
| 20260902230530 | 69 | 221 | 2.0 | 6.0 | 0.00 | 0.00 | 0.00 | 41 | 1003.6 |
| 20260902230223 | 68 | 345 | 0.0 | 6.0 | 0.00 | 0.00 | 0.00 | 41 | 1003.7 |
| 20260902225542 | 69 | 352 | 2.0 | 6.0 | 0.00 | 0.00 | 0.00 | 41 | 1003.7 |
| 20260902225036 | 69 | 17 | 1.0 | 4.0 | 0.00 | 0.00 | 0.00 | 42 | 1003.8 |
| 20260902224626 | 69 | 311 | 1.0 | 4.0 | 0.00 | 0.00 | 0.00 | 42 | 1003.8 |
| 20260902224032 | 69 | 221 | 1.0 | 4.0 | 0.00 | 0.00 | 0.00 | 43 | 1003.9 |
| 20260902223542 | 69 | 88 | 1.0 | 5.0 | 0.00 | 0.00 | 0.00 | 43 | 1003.8 |
| 20260902223200 | 69 | 120 | 1.0 | 6.0 | 0.00 | 0.00 | 0.00 | 43 | 1003.9 |
| 20260902222549 | 69 | 232 | 1.0 | 8.0 | 0.00 | 0.00 | 0.00 | 43 | 1004.0 |
| 20260902222031 | 69 | 286 | 1.0 | 8.0 | 0.00 | 0.00 | 0.00 | 46 | 1004.0 |
| 20260902221645 | 69 | 44 | 3.0 | 8.0 | 0.00 | 0.00 | 0.00 | 45 | 1004.0 |
| 20260902221044 | 69 | 17 | 2.0 | 6.0 | 0.00 | 0.00 | 0.00 | 42 | 1004.0 |
| 20260902220528 | 69 | 352 | 1.0 | 6.0 | 0.00 | 0.00 | 0.00 | 43 | 1004.1 |
| 20260902220137 | 68 | 163 | 2.0 | 7.0 | 0.00 | 0.00 | 0.00 | 44 | 1004.3 |
| 20260902215532 | 68 | 40 | 1.0 | 6.0 | 0.00 | 0.00 | 0.00 | 45 | 1004.3 |
| 20260902215032 | 68 | 22 | 1.0 | 6.0 | 0.00 | 0.00 | 0.00 | 45 | 1004.7 |
| 20260902214659 | 69 | 29 | 1.0 | 8.0 | 0.00 | 0.00 | 0.00 | 46 | 1004.5 |
| 20260902214030 | 69 | 5 | 1.0 | 9.0 | 0.00 | 0.00 | 0.00 | 43 | 1004.9 |
| 20260902213542 | 70 | 18 | 2.0 | 9.0 | 0.00 | 0.00 | 0.00 | 43 | 1004.7 |
| 20260902213144 | 70 | 75 | 1.0 | 7.0 | 0.00 | 0.00 | 0.00 | 43 | 1004.7 |
| 20260902212537 | 70 | 76 | 1.0 | 6.0 | 0.00 | 0.00 | 0.00 | 44 | 1004.9 |
| 20260902212037 | 71 | 190 | 0.0 | 8.0 | 0.00 | 0.00 | 0.00 | 43 | 1005.0 |
| 20260902211618 | 71 | 107 | 2.0 | 6.0 | 0.00 | 0.00 | 0.00 | 42 | 1005.1 |
| 20260902211024 | 71 | 211 | 2.0 | 7.0 | 0.00 | 0.00 | 0.00 | 43 | 1005.3 |
| 20260902210540 | 71 | 53 | 3.0 | 7.0 | 0.00 | 0.00 | 0.00 | 43 | 1005.1 |
| 20260902210144 | 71 | 122 | 2.0 | 8.0 | 0.00 | 0.00 | 0.00 | 44 | 1005.0 |
| 20260902205538 | 71 | 34 | 3.0 | 10.0 | 0.00 | 0.00 | 0.00 | 43 | 1005.2 |
| 20260902205047 | 72 | 18 | 3.0 | 10.0 | 0.00 | 0.00 | 0.00 | 43 | 1005.1 |
| 20260902204610 | 72 | 47 | 2.0 | 9.0 | 0.00 | 0.00 | 0.00 | 43 | 1005.1 |
| 20260902204024 | 72 | 65 | 1.0 | 10.0 | 0.00 | 0.00 | 0.00 | 44 | 1004.9 |
| 20260902203531 | 71 | 71 | 2.0 | 10.0 | 0.00 | 0.00 | 0.00 | 45 | 1004.9 |
| 20260902203112 | 72 | 165 | 3.0 | 9.0 | 0.00 | 0.00 | 0.00 | 43 | 1005.1 |
| 20260902202524 | 72 | 300 | 2.0 | 10.0 | 0.00 | 0.00 | 0.00 | 44 | 1005.1 |
| 20260902202032 | 72 | 71 | 2.0 | 10.0 | 0.00 | 0.00 | 0.00 | 44 | 1005.5 |
| 20260902201627 | 73 | 331 | 1.0 | 7.0 | 0.00 | 0.00 | 0.00 | 44 | 1005.6 |
| 20260902201042 | 73 | 312 | 0.0 | 5.0 | 0.00 | 0.00 | 0.00 | 44 | 1005.5 |